#TimeSongShowListenersUKCS ListenersChoonPoonRatingStation
12017-09-26 03:01:00Skrillex - Ruffneck (Flex) - Original MixAutoDJ220000.0000FragRadio
22017-09-26 02:57:16Mike & the Mechanics - All I Need is a MiracleAutoDJ220000.0000FragRadio
32017-09-26 02:53:52Arctic Monkeys - ArabellaAutoDJ200000.0000FragRadio
42017-09-26 02:50:10Poets Of The Fall - Locking Up The SunAutoDJ200000.0000FragRadio
52017-09-26 02:43:36Ganzfeld Effect ft. KYE - The Sun ShinesAutoDJ200000.0000FragRadio
62017-09-26 02:43:24FragRadio.com - AdvertAutoDJ190000.0000FragRadio
72017-09-26 02:40:13Backstreet Boys - TryAutoDJ190000.0000FragRadio
82017-09-26 02:36:10Firewind - DreamchaserAutoDJ190000.0000FragRadio
92017-09-26 02:32:44bill withers - use meAutoDJ190000.0000FragRadio
102017-09-26 02:29:39Panic! At The Disco - CamisadoAutoDJ190000.0000FragRadio
112017-09-26 02:26:31Tobu - My Own ParadiseAutoDJ200000.0000FragRadio
122017-09-26 02:22:35Wez Clarke & Maxine Hardcastle - Walking With A Smile (Control-s Remix)AutoDJ210000.0000FragRadio
132017-09-26 02:18:24Pink Floyd - What Do You Want From MeAutoDJ210000.0000FragRadio
142017-09-26 02:15:05Sex Pistols - Holidays In The SunAutoDJ210000.0000FragRadio
152017-09-26 02:10:52Tujamo & Jacob Plant - All Night (Original Mix)AutoDJ230000.0000FragRadio
162017-09-26 02:10:38Frag Radio - JingleAutoDJ220000.0000FragRadio
172017-09-26 02:07:11Nirvana - Stay AwayAutoDJ240000.0000FragRadio
182017-09-26 02:03:13Childish Gambino - HeroAutoDJ250000.0000FragRadio
192017-09-26 01:59:57Maroon 5 feat. Christina Aguilera - Moves Like JaggerAutoDJ250000.0000FragRadio
202017-09-26 01:55:41Nickelback - Never AgainAutoDJ240000.0000FragRadio
212017-09-26 01:52:41Agnes - I Need You NowAutoDJ220000.0000FragRadio
222017-09-26 01:49:49Dodge & Fuski Vs 12th Planet - Big Riddim Monsta (Megalodon Remix)AutoDJ220000.0000FragRadio
232017-09-26 01:46:34Tinie Tempah - Written In The Stars (Feat. Eric Turner)AutoDJ200000.0000FragRadio
242017-09-26 01:43:28Theory Of A Deadman - Hate My LifeAutoDJ200000.0000FragRadio
252017-09-26 01:38:53Terravita & Casey Desmond - Settle The ScoreAutoDJ210000.0000FragRadio
262017-09-26 01:38:43FragRadio.com - AdvertAutoDJ200000.0000FragRadio
272017-09-26 01:34:45Rainbow - StarstruckAutoDJ210000.0000FragRadio
282017-09-26 01:30:47Firewind - Breaking The SilenceAutoDJ220000.0000FragRadio
292017-09-26 01:26:39David Grant & Jaki Graham - Could It Be I'm Falling in LoveAutoDJ220000.0000FragRadio
302017-09-26 01:21:44Smashing Pumpkins - Cherub RockAutoDJ210000.0000FragRadio
312017-09-26 01:18:04Ivy Lab - GomeisaAutoDJ190000.0000FragRadio
322017-09-26 01:14:43Azealia Banks - 212 Ft. Lazy JayAutoDJ200000.0000FragRadio
332017-09-26 01:11:23The Rolling Stones - Start Me UpAutoDJ190000.0000FragRadio
342017-09-26 01:08:13The Lonely Island - Dreamgirl (Feat. Norah Jones)AutoDJ180000.0000FragRadio
352017-09-26 01:03:33Pegboard Nerds & Tristam - Razor SharpAutoDJ190000.0000FragRadio
362017-09-26 00:58:56Goo Goo Dolls - IrisAutoDJ210000.0000FragRadio
372017-09-26 00:55:40The Beatles - Hello, GoodbyeAutoDJ190000.0000FragRadio
382017-09-26 00:51:34Childish Gambino - DifferenceAutoDJ190000.0000FragRadio
392017-09-26 00:48:32Angel City featuring Lara McAllen - Love Me Right (Oh Sheila)AutoDJ190000.0000FragRadio
402017-09-26 00:45:10Rizzle Kicks - Learn My LessonAutoDJ300000.0000FragRadio
412017-09-26 00:41:18Rise Against - Long Forgotten SonsAutoDJ190000.0000FragRadio
422017-09-26 00:37:48Venemy - Rescue Me (ft. Car)AutoDJ190000.0000FragRadio
432017-09-26 00:34:34Dj Satomi - Castle In The SkyAutoDJ210000.0000FragRadio
442017-09-26 00:30:16Rainbow - Man On The Silver MountainAutoDJ210000.0000FragRadio
452017-09-26 00:30:06FragRadio.com - AdvertAutoDJ200000.0000FragRadio
462017-09-26 00:25:35Firewind - Ready To StrikeAutoDJ210000.0000FragRadio
472017-09-26 00:22:25John Scatman - ScatmanAutoDJ220000.0000FragRadio
482017-09-26 00:18:33Kings Of Leon - Happy AloneAutoDJ200000.0000FragRadio
492017-09-26 00:15:04Euphony - Living Life Like I'm In A DreamAutoDJ200000.0000FragRadio
502017-09-26 00:11:21Pink - God Is a DJAutoDJ210000.0000FragRadio
512017-09-26 00:06:08Miguel Migs - EverythingAutoDJ230000.0000FragRadio
522017-09-26 00:02:58B.Traits feat. Elizabeth Troy - FeverAutoDJ220000.0000FragRadio
532017-09-25 23:59:58Paramore - PressureAutoDJ240000.0000FragRadio
542017-09-25 23:56:54Sam Smith - Money On My MindAutoDJ240000.0000FragRadio
552017-09-25 23:53:31The Whispers - And The Beat Goes OnAutoDJ240000.0000FragRadio
562017-09-25 23:50:39Nirvana - BreedAutoDJ240000.0000FragRadio
572017-09-25 23:47:41My Chemical Romance - To The EndAutoDJ240000.0000FragRadio
582017-09-25 23:44:23Pasadenas - I'm Doing Fine NowAutoDJ230000.0000FragRadio
592017-09-25 23:39:51Billy Ocean - Get outta my dreamsAutoDJ260000.0000FragRadio
602017-09-25 23:38:10Childish Gambino - Nowhere To Go (disaster babe)AutoDJ260000.0000FragRadio
612017-09-25 23:33:07Vloid - ShakedownAutoDJ290000.0000FragRadio
622017-09-25 23:29:05Motorhead - Back At The Funny FarmAutoDJ290000.0000FragRadio
632017-09-25 23:25:45Red Hot Chili Peppers - Higher GroundAutoDJ280000.0000FragRadio
642017-09-25 23:25:35FragRadio.com - AdvertAutoDJ260000.0000FragRadio
652017-09-25 23:21:16Foo Fighters - All My LifeAutoDJ290000.0000FragRadio
662017-09-25 23:17:14Firewind - Falling To PiecesAutoDJ260000.0000FragRadio
672017-09-25 23:13:00Red Rider - Lunatic FringeAutoDJ270000.0000FragRadio
682017-09-25 23:09:14Obsidia - OblivionAutoDJ260000.0000FragRadio
692017-09-25 23:05:58Duke Dumont feat. Jax Jones - I Got U (W&W Remix)AutoDJ270000.0000FragRadio
702017-09-25 23:02:12Basshunter - Love You MoreAutoDJ280000.0000FragRadio
712017-09-25 22:57:18Astronaut & Far Too Loud - War (Teddy Killerz Remix)AutoDJ290000.0000FragRadio
722017-09-25 22:52:46Fall Out Boy Elton John - Save Rock and RollAutoDJ320000.0000FragRadio
732017-09-25 22:49:08Twenty One Pilots - GonerAutoDJ310000.0000FragRadio
742017-09-25 22:45:46Ed Sheeran - DrunkAutoDJ330000.0000FragRadio
752017-09-25 22:42:46McFly - All About YouAutoDJ280000.0000FragRadio
762017-09-25 22:39:40Matt Monro - Mary's Boy ChildAutoDJ320000.0000FragRadio
772017-09-25 22:35:51Marilyn Manson - Angel With the Scabbed WingsAutoDJ320000.0000FragRadio
782017-09-25 22:32:09Genesis - I Can't DanceAutoDJ330000.0000FragRadio
792017-09-25 22:28:37A-Ha - Take On MeAutoDJ340000.0000FragRadio
802017-09-25 22:24:45Five Finger Death Punch - I ApologizeAutoDJ320000.0000FragRadio
812017-09-25 22:20:34Foxsky ft. Negitoro - My Friend The YellowtailAutoDJ290000.0000FragRadio
822017-09-25 22:16:10Madonna - Don't Tell MeAutoDJ290000.0000FragRadio
832017-09-25 22:12:30Childish Gambino - You Know MeAutoDJ270000.0000FragRadio
842017-09-25 22:08:52Dec3mber - Uneasy LIsteningAutoDJ230000.0000FragRadio
852017-09-25 22:04:59Jake Bugg - BrokenAutoDJ230000.0000FragRadio
862017-09-25 22:00:41Firewind - InsanityAutoDJ230000.0000FragRadio
872017-09-25 21:56:19Blues Traveler - Run-AroundAutoDJ220000.0000FragRadio
882017-09-25 21:52:03Green Day - Working class heroAutoDJ230000.0000FragRadio
892017-09-25 21:46:31NERVO - It Feels (Extended Mix)AutoDJ210000.0000FragRadio
902017-09-25 21:41:22Arch Origin - MesmerizeAutoDJ180000.0000FragRadio
912017-09-25 21:37:26Foo Fighters - Let It DieAutoDJ210000.0000FragRadio
922017-09-25 21:27:50Feeder - Feeling A MomentAutoDJ390000.0000FragRadio
932017-09-25 21:22:29Trivecta - Evaporate (feat. Aloma Steele)AutoDJ410000.0000FragRadio
942017-09-25 21:18:39Protostar & MakO - No Fire (feat. Rachel Hirons)AutoDJ420000.0000FragRadio
952017-09-25 21:14:14Ellie Goulding - Dead In The WaterAutoDJ430000.0000FragRadio
962017-09-25 21:08:19Guns N Roses - ProstituteAutoDJ431000.0000FragRadio
972017-09-25 21:08:09Frag Radio - JingleAutoDJ421000.0000FragRadio
982017-09-25 21:04:39Shakira-byevilme13 - Hips Don't Lie (Feat Wyclef Jean)AutoDJ451000.0000FragRadio
992017-09-25 21:01:07Childish Gambino - Let Me Dope YouAutoDJ450000.0000FragRadio
1002017-09-25 20:57:59Duncan Browne - JourneyAutoDJ460000.0000FragRadio